Date,TemperatureHighF,TemperatureAvgF,TemperatureLowF,DewpointHighF,DewpointAvgF,DewpointLowF,HumidityHigh,HumidityAvg,HumidityLow,PressureMaxIn,PressureMinIn,WindSpeedMaxMPH,WindSpeedAvgMPH,GustSpeedMaxMPH,PrecipitationSumIn
2013-6-1,72.5,60.0,48.5,50.1,46.9,39.2,93,65,32,30.16,29.96,10,1,12,0.00
2013-6-2,68.3,59.3,52.5,50.5,48.2,44.6,88,68,45,30.02,29.97,8,1,12,0.00
2013-6-3,72.0,58.9,47.6,53.4,49.5,46.1,96,74,44,30.05,29.98,10,1,12,0.00
2013-6-4,80.1,65.1,48.5,57.3,51.7,46.6,96,66,31,30.05,29.94,10,1,12,0.00
2013-6-5,78.8,66.5,53.1,56.7,52.9,46.5,91,64,42,30.00,29.94,11,1,12,0.00
2013-6-6,79.2,65.9,51.4,58.7,51.2,40.9,95,63,29,29.97,29.92,10,1,14,0.00
2013-6-7,70.3,59.9,53.2,55.2,48.9,40.9,87,68,38,30.06,29.95,14,1,18,0.00
2013-6-8,68.3,58.9,52.6,52.1,49.5,46.3,83,72,52,30.10,30.01,8,1,11,0.00
2013-6-9,68.1,58.9,51.9,50.2,46.3,43.5,81,64,42,30.02,29.93,11,2,13,0.00
2013-6-10,70.1,58.7,48.9,48.4,44.7,38.3,81,61,32,29.95,29.81,12,2,14,0.00
2013-6-11,63.9,55.5,48.6,53.6,46.2,42.6,85,72,50,30.05,29.88,19,1,19,0.07
2013-6-12,58.0,52.1,49.4,51.2,47.7,45.2,95,85,66,30.08,30.05,6,0,8,0.32
2013-6-13,65.5,56.7,49.9,52.7,50.1,47.0,97,80,52,30.16,30.07,7,1,14,0.03
2013-6-14,66.4,57.6,51.3,50.6,48.5,47.5,89,73,51,30.17,29.98,9,1,14,0.00
2013-6-15,78.1,63.3,46.0,56.0,50.1,42.9,96,66,29,29.98,29.84,11,1,15,0.00
2013-6-16,73.3,62.5,51.6,61.7,53.0,48.8,93,73,50,30.02,29.92,8,1,12,0.01
2013-6-17,75.3,62.7,51.9,56.0,51.8,47.9,96,71,39,30.02,29.82,19,1,25,0.08
2013-6-18,70.6,60.6,54.5,55.9,50.7,41.8,97,73,36,29.91,29.80,18,1,21,0.01
2013-6-19,65.8,56.8,51.3,54.8,50.8,44.8,95,81,48,29.94,29.84,12,1,14,0.03
2013-6-20,58.1,54.7,52.2,53.1,50.7,48.7,95,87,73,30.03,29.89,12,1,20,0.14
2013-6-21,68.3,58.3,51.4,54.7,51.7,49.2,97,81,53,30.08,30.03,6,0,7,0.02
2013-6-22,77.2,64.7,49.5,55.8,51.5,48.4,97,67,39,30.04,29.77,9,1,11,0.00
2013-6-23,69.6,63.6,58.3,63.1,58.7,54.6,95,85,69,29.77,29.52,9,0,11,0.16
2013-6-24,66.1,59.7,54.8,59.1,56.0,52.7,97,88,65,29.64,29.50,11,1,21,0.27
2013-6-25,74.0,60.3,53.9,60.1,55.5,52.1,97,86,49,29.79,29.59,13,1,24,0.28
2013-6-26,73.0,62.0,55.4,60.7,57.0,54.3,97,85,56,30.00,29.77,12,1,14,0.05
2013-6-27,72.0,63.2,58.0,64.1,60.1,56.9,97,90,65,30.12,29.96,5,0,7,0.09
2013-6-28,87.4,72.8,61.0,68.2,62.3,58.8,97,73,39,30.11,29.97,10,1,12,0.00
2013-6-29,85.7,73.3,63.5,63.0,60.1,56.4,94,66,40,30.03,29.92,7,0,9,0.00
2013-6-30,92.1,76.7,59.3,66.4,62.7,57.9,96,66,34,29.94,29.77,11,1,13,0.00